COSMOS 1634

导读

COSMOS 1634是苏联(CIS)于1985年3月14日发射的一颗军用侦察卫星,隶属于著名的“宇宙”卫星系列。该系列卫星采用统一编号命名,借此隐蔽卫星真实任务属性。COSMOS系列是冷战时期苏联航天活动的重要组成,涵盖军事侦察、电子情报收集等多种用途,在美苏太空对抗中发挥了关键作用,这类卫星多数已完成服役任务,部分残骸会再入大气层销毁。

Basic Information
目录编号:
15597
目录名称:
COSMOS 1634
国际标识:
1985-022A
轨道中心:
EARTH
卫星名称:
COSMOS 1634
卫星全名:
--
卫星状态:
在轨 (已飞行15065 天)
发射日期:
1985-03-14 UTC
国别 :
俄罗斯(独联体) (CIS)
星等 :
--
Orbit Information
数据来源 国际轨道数据 AOE轨道数据
星历时间 2026-06-12T14:30:51+0800
14小时前
查看轨道信息
2026-06-08T02:00:00+0800
5天前
查看轨道信息
半长轴 7358.644km 7358.645km
偏心率 0.0036603 0.0036783
轨道倾角 82.940° 82.940°
近地点辐角 51.992° 64.261°
升交点赤经 219.342° 222.693°
平近点角 18.440° 312.437°
近地点 953.572km 953.44km
远地点 1007.442km 1007.576km
周期 104.702分钟 104.702分钟
每日圈数 13.753274 13.753273
Detailed Information
使用方式:
暂无
2D Orbit Map
3D Orbit Map
Orbit Altitude Analysis Chart
Orbit Inclination Analysis Chart
Orbit Comprehensive Analysis Chart
View Comprehensive Chart